OSCAR 7 (AO-7)

Last updated on Thu Nov 06 2025 00:03:08 GMT+0000 (Coordinated Universal Time)

1 07530U 74089B 25308.98323770 -.00000031 00000+0 97994-4 0 9996 2 07530 101.9979 314.8511 0012097 198.1892 189.6315 12.53693080332427
UTC large
Height (km)
Speed (km/s)
/
Latitude / Longitude
Inclination (degrees)
Orbital Period (minutes)
Azimuth
Elevation
Range (km)
Doppler Factor

Next 0 passes for location: London (51.5072 / 0.1276)

Sorry there are no passes over London.